User: anonymous   Login
Location: Unspecified
(0.0000°N, 0.0000°E)
Time: 06:57:59
(UTC+00:00)
Language:

CUSAT 1 - Orbit

View from above orbital plane
View from above orbital plane
View from above satellite
View from above satellite

Ground track
Ground track

The orbit data is extracted from the following two-line orbital elements,

1 39266U 13055B   17202.88795226 +.00006107 +00000-0 +16966-3 0  9994
2 39266 080.9883 332.5488 0662270 128.1916 238.0847 14.29360984196956
Epoch (UTC): 21 July 2017 21:18:39
Eccentricity: 0.0662270
inclination: 80.9883°
perigee height: 319 km
apogee height: 1269 km
right ascension of ascending node: 332.5488°
argument of perigee: 128.1916°
revolutions per day: 14.29360984
mean anomaly at epoch: 238.0847°
orbit number at epoch: 19695

The dashed part of the orbit path shows where the satellite is in the earth's shadow,  

DLR